Regional Weather Roundup
Issued by NWS Cleveland, OH

Home | Current Version | Previous Version | Text Only | Print | Product List | Glossary Off
Versions: 1 2 3 4 5 6 7 8 9 10 11 12 13 14 15 16 17 18 19 20 21 22 23 24 25 26 27 28 29 30 31 32 33 34 35 36 37 38 39 40 41 42 43 44 45 46 47 48 49 50

000
ASUS41 KCLE 301410
RWRCLE
OHIO REGIONAL WEATHER ROUNDUP
NATIONAL WEATHER SERVICE CLEVELAND, OH
1000 AM EDT THU OCT 30 2014

NOTE: "FAIR" INDICATES FEW OR NO CLOUDS BELOW 12,000 FEET WITH NO
SIGNIFICANT WEATHER AND/OR OBSTRUCTIONS TO VISIBILITY.

OHZ001>008-015>018-024>027-034-035-043-044-301500-
   NORTHWEST OHIO

CITY           SKY/WX    TMP DP  RH WIND       PRES   REMARKS
DEFIANCE       CLOUDY    42  38  85 CALM      30.17R
FINDLAY        SUNNY     44  37  76 NW5       30.15R
TOLEDO EXPRESS SUNNY     39  35  86 SW3       30.16R
TOLEDO EXEC    SUNNY     42  35  76 CALM      30.17R
LIMA           CLOUDY    44  37  76 NW5       30.16R
$$

OHZ009>014-019>023-028>033-038-089-301500-
   NORTHEAST OHIO

CITY           SKY/WX    TMP DP  RH WIND       PRES   REMARKS
CLE-HOPKINS    PTSUNNY   44  43  96 VRB6      30.16R
CLE-LAKEFRONT    N/A    N/A N/A N/A MISG        N/A
CUY CO. ARPT   CLOUDY    48  39  71 N7        30.13R
LORAIN-ELYRIA  PTSUNNY   43  39  86 W5        30.14R
ASHTABULA      CLOUDY    45  43  93 CALM      30.11R
AKRON-CANTON   PTSUNNY   42  39  89 NW3       30.12R FOG
WOOSTER        MOSUNNY   43  39  86 CALM      30.14R
MANSFIELD      SUNNY     42  39  89 NW7       30.14R
YOUNGSTOWN     CLOUDY    45  41  86 W6        30.10S
$$

OHZ042-051>053-060>062-070>072-077>081-301500-
  SOUTHWEST OHIO

CITY           SKY/WX    TMP DP  RH WIND       PRES   REMARKS
CINC-COVINGTON SUNNY     46  36  68 N5        30.17R
CINC-LUNKEN    SUNNY     44  39  82 CALM      30.19R
HAMILTON       PTSUNNY   46  37  71 CALM      30.19R
DAYTON         CLOUDY    45  37  73 NW5       30.18R
WRIGHT-PAT AFB CLOUDY    45  36  71 N3        30.17R
DAYTON GENERAL CLOUDY    45  37  73 CALM      30.16R
WILMINGTON     CLOUDY    46  35  65 NW6       30.16R
$$

OHZ036-037-039>041-045>050-054>059-063>069-073>076-082>088-301500-
  CENTRAL AND SOUTHEAST OHIO

CITY           SKY/WX    TMP DP  RH WIND       PRES   REMARKS
COLUMBUS       MOSUNNY   45  37  73 NW3       30.15S
OSU AIRPORT    SUNNY     45  37  73 N6        30.15S
BOLTON FIELD   SUNNY     45  37  76 N3        30.16S
RICKENBACK AFB SUNNY     44  37  75 E5        30.15F
NEWARK         SUNNY     43  37  79 CALM      30.15R
MARION         SUNNY     43  37  79 N5        30.15S
LANCASTER      SUNNY     44  37  76 CALM      30.16S
ZANESVILLE     SUNNY     39  34  82 MISG      30.15R
NEW PHILLY     SUNNY     43  38  82 CALM      30.15R
$$



USA.gov is the U.S. government's official web portal to all federal, state and local government web resources and services.